FIN2 KLAX-EFHK

Flight info

Callsign FIN2
Flight time N/A
Altitude 38000
Route LADYJ4 CSTRO DCT CANDA/N0484F330 DCT KU69K/N0490F390 DCT KU84M DCT KU12O DCT AXILI DCT 55N105W 60N100W 65N090W 6830N08000W 71N070W/M085F410 DCT INGUM DCT 73N060W 74N040W 73N020W 70N000E/N0489F410 DCT GUBNO DCT NEBUR DCT UXADA Y349 AMROT Y362 LAKUT LAKUT7A
Aircraft A359/H-SDE2E3GHIJ3J4J5LM1ORWXY/LB1D1

Departure

Time 2026-04-25 19:40
Airport Los Angeles International Airport (KLAX)

Arrival

Time N/A
Airport Helsinki Vantaa Airport (EFHK)
Time Latitude Longitude Altitude Speed Heading
2026-04-25 19:00 33.94177 -118.41097 99 ft 0 kts 82°
2026-04-25 19:01 33.94178 -118.41090 99 ft 0 kts 83°
2026-04-25 19:29 33.94176 -118.41110 99 ft 4 kts 83°
2026-04-25 19:30 33.94173 -118.41142 97 ft 4 kts 83°
2026-04-25 19:30 33.94170 -118.41169 96 ft 4 kts 81°
2026-04-25 19:30 33.94161 -118.41195 98 ft 4 kts 30°
2026-04-25 19:30 33.94137 -118.41201 98 ft 3 kts 353°
2026-04-25 19:31 33.94111 -118.41197 100 ft 4 kts 353°
2026-04-25 19:31 33.94104 -118.41196 98 ft 0 kts 353°
2026-04-25 19:33 33.94108 -118.41196 98 ft 1 kts 353°
2026-04-25 19:34 33.94138 -118.41201 100 ft 8 kts 353°
2026-04-25 19:34 33.94216 -118.41213 101 ft 13 kts 353°
2026-04-25 19:34 33.94307 -118.41227 101 ft 14 kts 353°
2026-04-25 19:34 33.94410 -118.41242 101 ft 15 kts 353°
2026-04-25 19:35 33.94519 -118.41258 100 ft 16 kts 353°
2026-04-25 19:35 33.94638 -118.41275 100 ft 17 kts 353°
2026-04-25 19:35 33.94727 -118.41290 101 ft 10 kts 353°
2026-04-25 19:35 33.94784 -118.41256 103 ft 10 kts 57°
2026-04-25 19:36 33.94803 -118.41175 103 ft 11 kts 78°
2026-04-25 19:36 33.94813 -118.41085 101 ft 11 kts 84°
2026-04-25 19:36 33.94823 -118.40983 103 ft 13 kts 82°
2026-04-25 19:36 33.94835 -118.40870 103 ft 14 kts 83°
2026-04-25 19:37 33.94848 -118.40745 102 ft 16 kts 83°
2026-04-25 19:37 33.94862 -118.40610 103 ft 17 kts 83°
2026-04-25 19:37 33.94877 -118.40463 103 ft 18 kts 83°
2026-04-25 19:37 33.94893 -118.40307 102 ft 19 kts 83°
2026-04-25 19:38 33.94909 -118.40142 101 ft 20 kts 83°
2026-04-25 19:38 33.94923 -118.40008 100 ft 13 kts 83°
2026-04-25 19:38 33.94937 -118.39951 102 ft 3 kts 60°
2026-04-25 19:38 33.94956 -118.39928 103 ft 4 kts 35°
2026-04-25 19:39 33.94989 -118.39918 101 ft 5 kts
2026-04-25 19:39 33.95023 -118.39936 101 ft 6 kts 316°
2026-04-25 19:39 33.95036 -118.39980 101 ft 6 kts 274°
2026-04-25 19:39 33.95033 -118.40033 101 ft 7 kts 265°
2026-04-25 19:40 33.95012 -118.40245 104 ft 57 kts 263°
2026-04-25 19:40 33.94936 -118.40991 103 ft 120 kts 263°
2026-04-25 19:40 33.94819 -118.42211 151 ft 168 kts 260°
2026-04-25 19:40 33.94687 -118.43620 827 ft 169 kts 258°
2026-04-25 19:41 33.94541 -118.44979 1821 ft 155 kts 259°
2026-04-25 19:41 33.94418 -118.46222 2442 ft 147 kts 259°
2026-04-25 19:41 33.94316 -118.47419 2808 ft 147 kts 262°
2026-04-25 19:41 33.94297 -118.47846 2883 ft 152 kts 264°
2026-04-25 19:42 33.94228 -118.50164 3152 ft 182 kts 266°
2026-04-25 19:42 33.94174 -118.51751 3308 ft 200 kts 264°
2026-04-25 19:42 33.94046 -118.53509 3456 ft 221 kts 261°
2026-04-25 19:42 33.93880 -118.55445 3650 ft 241 kts 262°
2026-04-25 19:43 33.93709 -118.57498 3954 ft 257 kts 263°
2026-04-25 19:43 33.93538 -118.59685 4505 ft 261 kts 263°
2026-04-25 19:43 33.93585 -118.61869 5069 ft 265 kts 281°
2026-04-25 19:43 33.94389 -118.63874 5573 ft 273 kts 309°
2026-04-25 19:44 33.95874 -118.65310 6220 ft 273 kts 326°
2026-04-25 19:44 33.97477 -118.66486 6950 ft 269 kts 326°
2026-04-25 19:44 33.99189 -118.67439 7508 ft 275 kts 341°
2026-04-25 19:44 34.01094 -118.67691 7986 ft 283 kts 358°
2026-04-25 19:45 34.03082 -118.67583 8495 ft 288 kts
2026-04-25 19:45 34.05090 -118.67424 9033 ft 291 kts
2026-04-25 19:45 34.07135 -118.67256 9590 ft 296 kts
2026-04-25 19:45 34.09167 -118.66890 10092 ft 302 kts
2026-04-25 19:46 34.11272 -118.66398 10328 ft 316 kts
2026-04-25 19:46 34.13493 -118.65862 10536 ft 331 kts
2026-04-25 19:46 34.15790 -118.65312 10710 ft 345 kts
2026-04-25 19:46 34.18207 -118.64735 10905 ft 359 kts
2026-04-25 19:47 34.20707 -118.64140 11080 ft 372 kts
2026-04-25 19:47 34.23284 -118.63579 11258 ft 382 kts
2026-04-25 19:47 34.25931 -118.63618 11520 ft 383 kts 348°
2026-04-25 19:47 34.28561 -118.64145 11902 ft 386 kts 345°
2026-04-25 19:48 34.31215 -118.64761 12307 ft 389 kts 344°
2026-04-25 19:48 34.33884 -118.65389 12676 ft 393 kts 343°
2026-04-25 19:48 34.36587 -118.66016 13011 ft 399 kts 343°
2026-04-25 19:48 34.39326 -118.66649 13353 ft 403 kts 343°
2026-04-25 19:49 34.42084 -118.67282 13768 ft 405 kts 343°
2026-04-25 19:49 34.43003 -118.67494 13848 ft 407 kts 343°
2026-04-25 19:49 34.47705 -118.68451 14503 ft 410 kts 345°
2026-04-25 19:49 34.50508 -118.68978 14889 ft 412 kts 345°
2026-04-25 19:50 34.56224 -118.70071 15654 ft 417 kts 345°
2026-04-25 19:50 34.59082 -118.70625 16047 ft 418 kts 345°
2026-04-25 19:50 34.61946 -118.71186 16471 ft 419 kts 345°
2026-04-25 19:51 34.64852 -118.71753 16839 ft 422 kts 346°
2026-04-25 19:51 34.67757 -118.72321 17200 ft 425 kts 345°
2026-04-25 19:51 34.70664 -118.72983 17559 ft 423 kts 340°
2026-04-25 19:51 34.73402 -118.74185 17905 ft 417 kts 328°
2026-04-25 19:52 34.75957 -118.75825 18236 ft 417 kts 325°
2026-04-25 19:52 34.78492 -118.77570 18528 ft 419 kts 324°
2026-04-25 19:52 34.81024 -118.79325 18825 ft 421 kts 324°
2026-04-25 19:52 34.83544 -118.81067 19122 ft 422 kts 324°
2026-04-25 19:53 34.86132 -118.82857 19386 ft 425 kts 324°
2026-04-25 19:53 34.88680 -118.84616 19668 ft 427 kts 324°
2026-04-25 19:53 34.91259 -118.86397 19976 ft 427 kts 324°
2026-04-25 19:53 34.93857 -118.88185 20246 ft 430 kts 324°
2026-04-25 19:54 34.96461 -118.89978 20475 ft 433 kts 324°
2026-04-25 19:54 34.99094 -118.91791 20737 ft 435 kts 324°
2026-04-25 19:54 35.01735 -118.93614 20995 ft 437 kts 325°
2026-04-25 19:54 35.02603 -118.94213 21067 ft 438 kts 325°
2026-04-25 19:55 35.07049 -118.97285 21516 ft 442 kts 324°
2026-04-25 19:55 35.09746 -118.99151 21783 ft 443 kts 324°
2026-04-25 19:55 35.12424 -119.01003 22045 ft 445 kts 324°
2026-04-25 19:55 35.15132 -119.02878 22306 ft 447 kts 324°